Location: B?lite?ti
(46.2833°N, 22.7333°E)
Time: 04:37:04
(UTC+00:00)

Feng Yun 1-1 Rocket - Pass Details

Date: 24 January 2021
Orbit: 830 x 932 km, 99.2° (Epoch: 26 February)

Event Time Altitude Azimuth Distance (km) Brightness Sun altitude
Rises 15:57:21 0° 145° (SE) 3,378 7.2 -6.4°
Reaches altitude 10° 15:59:44 10° 140° (SE) 2,457 6.4 -6.8°
Maximum altitude 16:04:57 48° 67° (ENE) 1,109 4.4 -7.6°
Drops below altitude 10° 16:10:17 10° 355° (N) 2,529 6.5 -8.5°
Sets 16:12:47 0° 350° (N) 3,487 7.3 -8.9°
